Weather History for KBLM - March, 2014

Change the Weather History Date:

Tuesday, March 25, 2014

  Actual Average Record
Temperature  
Mean Temperature 28 °F -  
Max Temperature 37 °F 51 °F 55 °F (2003)
Min Temperature 19 °F 35 °F 19 °F (2014)
Degree Days  
Heating Degree Days 37    
Moisture  
Dew Point 13 °F    
Average Humidity 52    
Maximum Humidity 86    
Minimum Humidity 36    
Precipitation  
Precipitation 0.00 in - - ()
Sea Level Pressure  
Sea Level Pressure 30.03 in    
Wind  
Wind Speed 4 mph (ESE)    
Max Wind Speed 14 mph    
Max Gust Speed 20 mph    
Visibility 8 miles    
Events      
Averages and records for this station are not official NWS values.
T = Trace of Precipitation, MM = Missing Value Source: NWS Daily Summary

Daily Weather History Graph

Daily Weather History Graph

Search for Another Location

Airport or City:

Trip Planner

Search our weather history database for the weather conditions in past years. The results will help you decide how hot, cold, wet, or windy it might be!

Date:

Astronomy

Mar. 25, 2014 Rise Set
Actual Time 6:51 AM EDT 7:13 PM EDT
Civil Twilight 6:24 AM EDT 7:40 PM EDT
Nautical Twilight 5:52 AM EDT 8:12 PM EDT
Astronomical Twilight 5:20 AM EDT 8:45 PM EDT
Moon 3:11 AM EDT (3/25) 1:41 PM EDT (3/25)
Length of Visible Light 13h 16m
Length of Day
12h 21m
Waning Crescent, 32% of the Moon is Illuminated
Mar 25
Waning Crescent
Mar 30
New
Apr 7
First Quarter
Apr 15
Full
Apr 22
Last Quarter

Hourly Weather History & Observations

Time (EDT) Temp. Windchill Dew Point Humidity Pressure Visibility Wind Dir Wind Speed Gust Speed Precip Events Conditions
12:15 AM 24.8 °F - 5.0 °F 43% 30.16 in 10.0 mi Calm Calm - N/A   Clear
12:35 AM 24.8 °F - 3.2 °F 40% 30.16 in 10.0 mi Calm Calm - N/A   Clear
12:55 AM 24.8 °F - 5.0 °F 43% 30.15 in 10.0 mi Calm Calm - N/A   Clear
1:15 AM 24.8 °F 20.5 °F 3.2 °F 40% 30.16 in 10.0 mi West 3.5 mph - N/A   Clear
1:35 AM 26.6 °F - 3.2 °F 37% 30.15 in 10.0 mi Calm Calm - N/A   Clear
1:55 AM 24.8 °F - 5.0 °F 43% 30.15 in 10.0 mi Calm Calm - N/A   Clear
2:15 AM 24.8 °F - 5.0 °F 43% 30.15 in 10.0 mi Calm Calm - N/A   Clear
2:35 AM 24.8 °F - 5.0 °F 43% 30.15 in 10.0 mi Calm Calm - N/A   Clear
2:55 AM 24.8 °F - 3.2 °F 40% 30.14 in 10.0 mi Calm Calm - N/A   Clear
3:15 AM 24.8 °F - 5.0 °F 43% 30.14 in 10.0 mi Calm Calm - N/A   Clear
3:35 AM 24.8 °F - 5.0 °F 43% 30.13 in 10.0 mi Calm Calm - N/A   Clear
3:55 AM 23.0 °F 17.0 °F 5.0 °F 46% 30.14 in 10.0 mi WSW 4.6 mph - N/A   Clear
4:15 AM 21.2 °F 16.4 °F 3.2 °F 46% 30.14 in 10.0 mi WSW 3.5 mph - N/A   Clear
4:35 AM 21.2 °F - 5.0 °F 50% 30.14 in 10.0 mi Calm Calm - N/A   Clear
4:55 AM 19.4 °F - 6.8 °F 58% 30.13 in 10.0 mi Calm Calm - N/A   Clear
5:15 AM 21.2 °F - 5.0 °F 50% 30.14 in 10.0 mi Calm Calm - N/A   Clear
5:35 AM 21.2 °F - 5.0 °F 50% 30.14 in 10.0 mi Calm Calm - N/A   Clear
5:55 AM 21.2 °F - 3.2 °F 46% 30.13 in 10.0 mi Calm Calm - N/A   Clear
6:15 AM 21.2 °F - 6.8 °F 54% 30.12 in 10.0 mi Calm Calm - N/A   Clear
6:35 AM 19.4 °F - 5.0 °F 54% 30.12 in 10.0 mi Calm Calm - N/A   Clear
6:55 AM 19.4 °F - 8.6 °F 63% 30.12 in 10.0 mi Calm Calm - N/A   Clear
7:15 AM 19.4 °F - 8.6 °F 63% 30.11 in 10.0 mi Calm Calm - N/A   Clear
7:35 AM 21.2 °F - 10.4 °F 63% 30.12 in 10.0 mi Calm Calm - N/A   Clear
7:55 AM 23.0 °F - 12.2 °F 63% 30.11 in 10.0 mi Calm Calm - N/A   Clear
8:15 AM 26.6 °F - 12.2 °F 55% 30.11 in 10.0 mi Calm Calm - N/A   Clear
8:35 AM 26.6 °F - 10.4 °F 51% 30.11 in 10.0 mi Calm Calm - N/A   Clear
8:55 AM 28.4 °F - 10.4 °F 47% 30.11 in 10.0 mi Calm Calm - N/A   Mostly Cloudy
9:15 AM 30.2 °F - 8.6 °F 40% 30.10 in 10.0 mi Calm Calm - N/A   Mostly Cloudy
9:35 AM 32.0 °F - 12.2 °F 44% 30.10 in 10.0 mi Calm Calm - N/A   Scattered Clouds
9:55 AM 33.8 °F 28.6 °F 10.4 °F 38% 30.10 in 10.0 mi SSE 5.8 mph - N/A   Clear
10:15 AM 33.8 °F 27.7 °F 10.4 °F 38% 30.11 in 10.0 mi South 6.9 mph - N/A   Clear
10:35 AM 33.8 °F 27.0 °F 10.4 °F 38% 30.11 in 10.0 mi South 8.1 mph - N/A   Clear
10:55 AM 35.6 °F 28.0 °F 12.2 °F 38% 30.11 in 10.0 mi SE 10.4 mph - N/A   Clear
11:15 AM 35.6 °F 28.6 °F 12.2 °F 38% 30.10 in 10.0 mi South 9.2 mph - N/A   Clear
11:35 AM 37.4 °F 29.8 °F 12.2 °F 36% 30.10 in 10.0 mi SSE 11.5 mph 16.1 mph N/A   Clear
11:55 AM 37.4 °F 29.8 °F 12.2 °F 36% 30.10 in 10.0 mi South 11.5 mph 18.4 mph N/A   Partly Cloudy
12:15 PM 37.4 °F 28.9 °F 12.2 °F 36% 30.09 in 10.0 mi SE 13.8 mph 17.3 mph N/A   Overcast
12:35 PM 37.4 °F 30.8 °F 12.2 °F 36% 30.08 in 10.0 mi South 9.2 mph 18.4 mph N/A   Overcast
12:55 PM 37.4 °F 29.8 °F 12.2 °F 36% 30.07 in 10.0 mi SE 11.5 mph - N/A   Mostly Cloudy
1:15 PM 37.4 °F 29.3 °F 12.2 °F 36% 30.06 in 10.0 mi South 12.7 mph - N/A   Mostly Cloudy
1:35 PM 37.4 °F 30.3 °F 12.2 °F 36% 30.05 in 10.0 mi SSE 10.4 mph 16.1 mph N/A   Overcast
1:55 PM 37.4 °F 29.8 °F 14.0 °F 38% 30.03 in 10.0 mi SE 11.5 mph 17.3 mph N/A   Scattered Clouds
2:15 PM 37.4 °F 30.8 °F 14.0 °F 38% 30.02 in 10.0 mi SE 9.2 mph 17.3 mph N/A   Clear
2:35 PM 37.4 °F 30.8 °F 15.8 °F 41% 30.01 in 10.0 mi SSE 9.2 mph 17.3 mph N/A   Scattered Clouds
2:55 PM 37.4 °F 28.9 °F 15.8 °F 41% 30.00 in 10.0 mi ESE 13.8 mph - N/A   Scattered Clouds
3:15 PM 37.4 °F 32.1 °F 15.8 °F 41% 29.99 in 10.0 mi SSE 6.9 mph - N/A   Scattered Clouds
3:35 PM 37.4 °F 32.1 °F 15.8 °F 41% 29.97 in 10.0 mi ESE 6.9 mph - N/A   Mostly Cloudy
3:55 PM 37.4 °F 30.8 °F 14.0 °F 38% 29.96 in 10.0 mi SE 9.2 mph - N/A   Overcast
4:15 PM 35.6 °F 29.9 °F 15.8 °F 44% 29.94 in 10.0 mi East 6.9 mph - N/A   Overcast
4:35 PM 35.6 °F 28.6 °F 15.8 °F 44% 29.92 in 10.0 mi East 9.2 mph - N/A   Overcast
4:55 PM 35.6 °F 28.6 °F 15.8 °F 44% 29.91 in 10.0 mi East 9.2 mph 16.1 mph N/A   Overcast
5:15 PM 35.6 °F 28.0 °F 15.8 °F 44% 29.91 in 10.0 mi ESE 10.4 mph - N/A   Overcast
5:35 PM 35.6 °F 30.7 °F 15.8 °F 44% 29.90 in 10.0 mi East 5.8 mph - N/A   Overcast
5:55 PM 35.6 °F 27.5 °F 15.8 °F 44% 29.90 in 10.0 mi East 11.5 mph - N/A   Overcast
6:15 PM 35.6 °F 29.2 °F 17.6 °F 48% 29.90 in 10.0 mi East 8.1 mph - N/A   Overcast
6:35 PM 33.8 °F 24.8 °F 17.6 °F 52% 29.91 in 10.0 mi ESE 12.7 mph - N/A   Overcast
6:55 PM 33.8 °F 25.8 °F 19.4 °F 56% 29.91 in 10.0 mi East 10.4 mph 16.1 mph N/A   Overcast
7:15 PM 32.0 °F 24.2 °F 21.2 °F 64% 29.91 in 3.0 mi East 9.2 mph 16.1 mph N/A   Overcast
7:35 PM 30.2 °F 24.3 °F 23.0 °F 75% 29.91 in 3.0 mi ENE 5.8 mph - N/A   Overcast
7:55 PM 30.2 °F 22.6 °F 23.0 °F 75% 29.90 in 2.5 mi ENE 8.1 mph - N/A   Overcast
8:15 PM 30.2 °F 24.3 °F 24.8 °F 80% 29.91 in 2.0 mi NE 5.8 mph - N/A   Overcast
8:35 PM 30.2 °F 23.4 °F 24.8 °F 80% 29.90 in 2.5 mi ENE 6.9 mph - N/A   Overcast
8:55 PM 30.2 °F 21.9 °F 24.8 °F 80% 29.89 in 1.8 mi NE 9.2 mph - N/A   Overcast
9:15 PM 30.2 °F 21.3 °F 24.8 °F 80% 29.88 in 2.5 mi NE 10.4 mph 19.6 mph N/A   Overcast
9:35 PM 30.2 °F 22.6 °F 24.8 °F 80% 29.89 in 3.0 mi NE 8.1 mph - N/A   Overcast
9:55 PM 30.2 °F 21.3 °F 24.8 °F 80% 29.88 in 2.5 mi NE 10.4 mph 16.1 mph N/A   Overcast
10:15 PM 30.2 °F 21.3 °F 24.8 °F 80% 29.87 in 2.5 mi NE 10.4 mph 18.4 mph N/A   Overcast
10:35 PM 30.2 °F 21.9 °F 24.8 °F 80% 29.87 in 2.5 mi NE 9.2 mph 16.1 mph N/A   Overcast
10:55 PM 30.2 °F 22.6 °F 24.8 °F 80% 29.86 in 3.0 mi NNE 8.1 mph - N/A   Overcast
11:15 PM 30.2 °F 21.9 °F 24.8 °F 80% 29.85 in 2.5 mi North 9.2 mph - N/A   Overcast
11:35 PM 30.2 °F 22.6 °F 24.8 °F 80% 29.84 in 2.5 mi NNE 8.1 mph - N/A   Overcast
11:55 PM 28.4 °F 19.1 °F 24.8 °F 86% 29.84 in 2.5 mi North 10.4 mph - N/A   Overcast